ETD9782 VGHS-OMAA

Flight info

Callsign ETD9782
Flight time N/A
Altitude 32000
Route IKOGU2 IKOGU A462 CEA A791 BPL L639 RITPO/N0488F340 L639 RASKI N881 KIPOL L444 TOLDA M628 TULBU P558 SODEX N563 NOBTO
Aircraft B77L/H-SDE1E2E3FGHIJ2J3J4J5M1RWXYZ/LB1D1

Departure

Time 2026-05-08 07:57
Airport Hazrat Shahjalal International Airport (VGHS)

Arrival

Time N/A
Airport Zayed International Airport (OMAA)
Time Latitude Longitude Altitude Speed Heading
2026-05-08 07:28 23.85548 90.39612 41 ft 0 kts 235°
2026-05-08 07:46 23.85555 90.39623 40 ft 4 kts 230°
2026-05-08 07:46 23.85574 90.39644 39 ft 4 kts 229°
2026-05-08 07:46 23.85590 90.39662 38 ft 4 kts 204°
2026-05-08 07:47 23.85611 90.39663 38 ft 4 kts 145°
2026-05-08 07:47 23.85629 90.39647 40 ft 1 kts 143°
2026-05-08 07:47 23.85633 90.39645 39 ft 0 kts 143°
2026-05-08 07:50 23.85629 90.39648 40 ft 1 kts 143°
2026-05-08 07:50 23.85608 90.39665 38 ft 9 kts 143°
2026-05-08 07:50 23.85549 90.39699 40 ft 10 kts 179°
2026-05-08 07:51 23.85496 90.39653 40 ft 10 kts 234°
2026-05-08 07:51 23.85430 90.39597 40 ft 18 kts 180°
2026-05-08 07:51 23.85282 90.39695 40 ft 28 kts 143°
2026-05-08 07:51 23.85126 90.39820 41 ft 28 kts 144°
2026-05-08 07:52 23.84968 90.39944 41 ft 28 kts 144°
2026-05-08 07:52 23.84812 90.40069 40 ft 28 kts 144°
2026-05-08 07:52 23.84655 90.40193 40 ft 28 kts 144°
2026-05-08 07:52 23.84498 90.40318 40 ft 28 kts 144°
2026-05-08 07:53 23.84341 90.40442 40 ft 28 kts 144°
2026-05-08 07:53 23.84184 90.40567 40 ft 28 kts 143°
2026-05-08 07:53 23.84028 90.40692 40 ft 28 kts 145°
2026-05-08 07:53 23.83872 90.40814 40 ft 28 kts 143°
2026-05-08 07:54 23.83716 90.40938 40 ft 28 kts 144°
2026-05-08 07:54 23.83559 90.41062 40 ft 28 kts 144°
2026-05-08 07:54 23.83453 90.41103 40 ft 12 kts 206°
2026-05-08 07:54 23.83395 90.41031 40 ft 13 kts 234°
2026-05-08 07:55 23.83344 90.40953 40 ft 13 kts 234°
2026-05-08 07:55 23.83292 90.40876 40 ft 13 kts 234°
2026-05-08 07:55 23.83240 90.40798 41 ft 13 kts 234°
2026-05-08 07:55 23.83195 90.40709 41 ft 14 kts 269°
2026-05-08 07:56 23.83269 90.40626 41 ft 24 kts 326°
2026-05-08 07:56 23.83598 90.40365 43 ft 101 kts 324°
2026-05-08 07:56 23.84387 90.39739 40 ft 175 kts 323°
2026-05-08 07:56 23.85431 90.38908 612 ft 189 kts 324°
2026-05-08 07:57 23.86490 90.38056 1445 ft 191 kts 316°
2026-05-08 07:57 23.87049 90.36754 2037 ft 197 kts 272°
2026-05-08 07:57 23.86791 90.35291 2765 ft 198 kts 250°
2026-05-08 07:57 23.86109 90.33978 3435 ft 203 kts 231°
2026-05-08 07:58 23.84986 90.32906 3731 ft 231 kts 207°
2026-05-08 07:58 23.83356 90.32430 4032 ft 252 kts 191°
2026-05-08 07:58 23.81587 90.32037 4710 ft 264 kts 193°
2026-05-08 07:58 23.79764 90.31614 5496 ft 272 kts 193°
2026-05-08 07:59 23.77915 90.31189 6361 ft 277 kts 193°
2026-05-08 07:59 23.76117 90.30477 7039 ft 279 kts 217°
2026-05-08 07:59 23.74819 90.28919 7779 ft 277 kts 238°
2026-05-08 07:59 23.73766 90.27126 8536 ft 283 kts 239°
2026-05-08 08:00 23.72684 90.25327 9463 ft 284 kts 239°
2026-05-08 08:00 23.71584 90.23522 10256 ft 289 kts 239°
2026-05-08 08:00 23.70432 90.21633 10663 ft 312 kts 238°
2026-05-08 08:00 23.69176 90.19572 10865 ft 340 kts 238°
2026-05-08 08:01 23.67826 90.17360 11143 ft 364 kts 238°
2026-05-08 08:01 23.66400 90.15030 11868 ft 374 kts 238°
2026-05-08 08:01 23.64943 90.12652 12815 ft 379 kts 237°
2026-05-08 08:01 23.63473 90.10256 13826 ft 382 kts 237°
2026-05-08 08:02 23.61989 90.07834 14707 ft 384 kts 237°
2026-05-08 08:02 23.60501 90.05406 15602 ft 386 kts 237°
2026-05-08 08:02 23.59024 90.02940 16468 ft 389 kts 238°
2026-05-08 08:02 23.57608 90.00414 17303 ft 392 kts 239°
2026-05-08 08:03 23.56203 89.97846 18136 ft 395 kts 240°
2026-05-08 08:03 23.54796 89.95269 18894 ft 396 kts 240°
2026-05-08 08:03 23.53378 89.92684 19630 ft 399 kts 239°
2026-05-08 08:03 23.51942 89.90082 20306 ft 402 kts 239°
2026-05-08 08:04 23.50491 89.87463 20977 ft 405 kts 239°
2026-05-08 08:04 23.49023 89.84822 21645 ft 408 kts 239°
2026-05-08 08:04 23.47546 89.82170 22304 ft 411 kts 239°
2026-05-08 08:04 23.46058 89.79500 22972 ft 414 kts 239°
2026-05-08 08:05 23.44574 89.76838 23564 ft 417 kts 239°
2026-05-08 08:05 23.43064 89.74131 24074 ft 420 kts 239°
2026-05-08 08:05 23.41547 89.71412 24615 ft 421 kts 239°
2026-05-08 08:05 23.40023 89.68682 25181 ft 422 kts 239°
2026-05-08 08:06 23.38492 89.65941 25704 ft 423 kts 239°
2026-05-08 08:06 23.36946 89.63205 26202 ft 425 kts 238°
2026-05-08 08:06 23.35346 89.60491 26695 ft 428 kts 238°
2026-05-08 08:06 23.33732 89.57810 27168 ft 430 kts 237°
2026-05-08 08:07 23.32084 89.55088 27640 ft 432 kts 237°
2026-05-08 08:07 23.30434 89.52358 28105 ft 433 kts 237°
2026-05-08 08:07 23.28778 89.49612 28564 ft 435 kts 238°
2026-05-08 08:07 23.27117 89.46850 28961 ft 437 kts 238°
2026-05-08 08:08 23.25448 89.44070 29339 ft 439 kts 238°
2026-05-08 08:08 23.23776 89.41284 29707 ft 441 kts 238°
2026-05-08 08:08 23.22095 89.38483 30073 ft 442 kts 238°
2026-05-08 08:08 23.20415 89.35685 30457 ft 441 kts 238°
2026-05-08 08:09 23.18742 89.32899 30896 ft 440 kts 238°
2026-05-08 08:09 23.17070 89.30117 31292 ft 439 kts 238°
2026-05-08 08:09 23.15400 89.27340 31694 ft 438 kts 238°
2026-05-08 08:09 23.13733 89.24569 32132 ft 437 kts 238°
2026-05-08 08:10 23.12070 89.21807 32556 ft 437 kts 238°
2026-05-08 08:10 23.10423 89.19074 32949 ft 436 kts 238°
2026-05-08 08:10 23.08762 89.16317 33323 ft 437 kts 238°
2026-05-08 08:10 23.07157 89.13655 33713 ft 437 kts 238°
2026-05-08 08:11 23.05702 89.11243 33897 ft 439 kts 238°
2026-05-08 08:11 23.02353 89.05695 33877 ft 437 kts 237°
2026-05-08 08:12 22.99032 89.00202 33879 ft 434 kts 238°
2026-05-08 08:12 22.95719 88.94723 33884 ft 434 kts 237°
2026-05-08 08:13 22.92426 88.89280 33880 ft 434 kts 238°
2026-05-08 08:13 22.89277 88.83690 33879 ft 434 kts 240°
2026-05-08 08:14 22.86190 88.78036 33882 ft 435 kts 240°
2026-05-08 08:14 22.83078 88.72393 33877 ft 436 kts 239°
2026-05-08 08:15 22.79959 88.66782 33880 ft 437 kts 239°
2026-05-08 08:15 22.76813 88.61135 33855 ft 438 kts 239°
2026-05-08 08:16 22.73662 88.55481 33880 ft 438 kts 239°
2026-05-08 08:16 22.70518 88.49821 33885 ft 437 kts 242°
2026-05-08 08:17 22.68552 88.43606 33892 ft 439 kts 257°
2026-05-08 08:17 22.68086 88.37004 33888 ft 443 kts 270°
2026-05-08 08:18 22.68565 88.30379 33881 ft 445 kts 271°
2026-05-08 08:18 22.69066 88.23700 33878 ft 445 kts 271°
2026-05-08 08:19 22.69529 88.17017 33876 ft 444 kts 270°
2026-05-08 08:19 22.69969 88.10334 33868 ft 444 kts 270°
2026-05-08 08:20 22.70399 88.03664 33865 ft 444 kts 270°
2026-05-08 08:20 22.70823 87.97035 33864 ft 444 kts 270°
2026-05-08 08:21 22.71248 87.90367 33866 ft 443 kts 270°
2026-05-08 08:21 22.71670 87.83694 33867 ft 443 kts 270°
2026-05-08 08:22 22.72087 87.77064 33866 ft 443 kts 270°
2026-05-08 08:22 22.72504 87.70401 33859 ft 443 kts 270°
2026-05-08 08:23 22.72917 87.63737 33857 ft 443 kts 270°
2026-05-08 08:23 22.73329 87.57064 33859 ft 444 kts 270°
2026-05-08 08:24 22.73738 87.50394 33857 ft 444 kts 270°
2026-05-08 08:24 22.74144 87.43716 33857 ft 444 kts 270°
2026-05-08 08:25 22.74545 87.37074 33860 ft 444 kts 270°
2026-05-08 08:25 22.74945 87.30394 33857 ft 444 kts 270°
2026-05-08 08:26 22.75343 87.23712 33856 ft 445 kts 270°
2026-05-08 08:26 22.75740 87.17009 33864 ft 445 kts 270°
2026-05-08 08:27 22.76133 87.10311 33861 ft 445 kts 270°
2026-05-08 08:27 22.76523 87.03640 33863 ft 446 kts 270°
2026-05-08 08:28 22.76911 86.96934 33860 ft 445 kts 270°
2026-05-08 08:28 22.77296 86.90232 33869 ft 445 kts 270°
2026-05-08 08:29 22.77678 86.83541 33876 ft 445 kts 270°
2026-05-08 08:29 22.78055 86.76891 33885 ft 444 kts 270°
2026-05-08 08:30 22.78430 86.70204 33879 ft 444 kts 270°
2026-05-08 08:30 22.78989 86.60173 33888 ft 444 kts 270°
2026-05-08 08:31 22.79357 86.53490 33893 ft 444 kts 271°
2026-05-08 08:31 22.79723 86.46807 33898 ft 444 kts 271°
2026-05-08 08:32 22.80086 86.40124 33897 ft 444 kts 271°
2026-05-08 08:32 22.80444 86.33488 33910 ft 444 kts 271°
2026-05-08 08:33 22.80802 86.26800 33905 ft 443 kts 271°
2026-05-08 08:33 22.81157 86.20125 33859 ft 443 kts 271°
2026-05-08 08:34 22.81562 86.13500 33860 ft 443 kts 272°
2026-05-08 08:34 22.82134 86.06843 33854 ft 443 kts 273°
2026-05-08 08:35 22.82717 86.00198 33871 ft 442 kts 273°
2026-05-08 08:35 22.83276 85.93564 33889 ft 442 kts 272°
2026-05-08 08:36 22.83820 85.86929 33900 ft 442 kts 272°
2026-05-08 08:37 22.84838 85.74390 33925 ft 442 kts 272°
2026-05-08 08:37 22.85374 85.67748 33934 ft 442 kts 272°
2026-05-08 08:38 22.85908 85.61094 33944 ft 444 kts 272°
2026-05-08 08:38 22.86438 85.54457 33945 ft 444 kts 272°
2026-05-08 08:39 22.86967 85.47792 33941 ft 443 kts 272°
2026-05-08 08:39 22.87494 85.41134 33946 ft 443 kts 273°
2026-05-08 08:40 22.88016 85.34481 33951 ft 442 kts 273°
2026-05-08 08:40 22.88536 85.27829 33948 ft 442 kts 273°
2026-05-08 08:41 22.89053 85.21177 33948 ft 442 kts 272°
2026-05-08 08:41 22.89564 85.14570 33951 ft 442 kts 272°
2026-05-08 08:42 22.90077 85.07919 33946 ft 442 kts 272°
2026-05-08 08:42 22.90586 85.01272 33955 ft 442 kts 273°
2026-05-08 08:43 22.91094 84.94625 33954 ft 442 kts 273°
2026-05-08 08:43 22.91598 84.87979 33959 ft 442 kts 272°
2026-05-08 08:44 22.92099 84.81338 33957 ft 442 kts 272°
2026-05-08 08:44 22.92595 84.74729 33954 ft 442 kts 272°
2026-05-08 08:45 22.93091 84.68083 33959 ft 442 kts 272°
2026-05-08 08:45 22.93585 84.61418 33955 ft 442 kts 273°
2026-05-08 08:46 22.94073 84.54800 33956 ft 442 kts 273°
2026-05-08 08:46 22.94562 84.48143 33959 ft 443 kts 273°
2026-05-08 08:47 22.95047 84.41482 33959 ft 443 kts 273°
2026-05-08 08:47 22.95532 84.34805 33965 ft 443 kts 273°
2026-05-08 08:48 22.96013 84.28129 33962 ft 443 kts 273°
2026-05-08 08:48 22.96488 84.21502 33962 ft 444 kts 273°
2026-05-08 08:49 22.96965 84.14810 33967 ft 444 kts 273°
2026-05-08 08:49 22.97396 84.08111 33964 ft 444 kts 272°
2026-05-08 08:50 22.97749 84.01414 33965 ft 444 kts 272°
2026-05-08 08:50 22.98096 83.94720 33972 ft 444 kts 272°
2026-05-08 08:51 22.98447 83.88071 33979 ft 444 kts 272°
2026-05-08 08:51 22.98805 83.81370 33998 ft 445 kts 271°
2026-05-08 08:52 22.99161 83.74649 33982 ft 445 kts 271°
2026-05-08 08:52 22.99513 83.67941 33976 ft 445 kts 271°
2026-05-08 08:53 22.99862 83.61236 33969 ft 444 kts 271°
2026-05-08 08:53 23.00207 83.54536 33979 ft 444 kts 271°
2026-05-08 08:54 23.00547 83.47880 33980 ft 444 kts 271°
2026-05-08 08:54 23.00887 83.41197 33973 ft 443 kts 271°
2026-05-08 08:55 23.01224 83.34494 33963 ft 444 kts 271°
2026-05-08 08:55 23.01557 83.27829 33963 ft 444 kts 271°
2026-05-08 08:56 23.01889 83.21139 33956 ft 443 kts 271°
2026-05-08 08:56 23.02217 83.14456 33943 ft 443 kts 271°
2026-05-08 08:57 23.02541 83.07782 33952 ft 442 kts 271°
2026-05-08 08:57 23.02861 83.01151 33955 ft 442 kts 271°
2026-05-08 08:58 23.03180 82.94489 33941 ft 442 kts 271°
2026-05-08 08:58 23.03496 82.87816 33943 ft 442 kts 271°
2026-05-08 08:59 23.03809 82.81141 33931 ft 442 kts 271°
2026-05-08 08:59 23.04120 82.74466 33924 ft 443 kts 271°
2026-05-08 09:00 23.04426 82.67816 33921 ft 444 kts 271°
2026-05-08 09:00 23.04733 82.61107 33917 ft 445 kts 271°
2026-05-08 09:01 23.05037 82.54392 33917 ft 445 kts 271°
2026-05-08 09:01 23.05339 82.47672 33918 ft 446 kts 271°
2026-05-08 09:02 23.05638 82.40946 33912 ft 446 kts 271°
2026-05-08 09:02 23.05934 82.34217 33914 ft 445 kts 271°
2026-05-08 09:03 23.06224 82.27563 33909 ft 443 kts 271°
2026-05-08 09:03 23.06512 82.20897 33908 ft 441 kts 271°
2026-05-08 09:04 23.06812 82.14254 33908 ft 440 kts 272°
2026-05-08 09:04 23.07222 82.07631 33923 ft 440 kts 273°
2026-05-08 09:05 23.07656 82.00999 33926 ft 440 kts 272°
2026-05-08 09:05 23.08074 81.94398 33937 ft 440 kts 272°
2026-05-08 09:06 23.08484 81.87753 33931 ft 441 kts 272°
2026-05-08 09:06 23.08889 81.81105 33931 ft 441 kts 272°
2026-05-08 09:07 23.09291 81.74443 33941 ft 442 kts 272°
2026-05-08 09:07 23.09692 81.67766 33938 ft 442 kts 272°
2026-05-08 09:08 23.10090 81.61094 33942 ft 443 kts 272°
2026-05-08 09:08 23.10485 81.54414 33941 ft 443 kts 272°
2026-05-08 09:09 23.10878 81.47729 33942 ft 443 kts 272°
2026-05-08 09:09 23.11266 81.41087 33937 ft 444 kts 272°
2026-05-08 09:10 23.11654 81.34396 33922 ft 444 kts 272°
2026-05-08 09:10 23.11976 81.28790 33935 ft 444 kts 272°
2026-05-08 09:11 23.12357 81.22120 33899 ft 446 kts 272°
2026-05-08 09:11 23.12740 81.15361 33899 ft 449 kts 272°
2026-05-08 09:12 23.13123 81.08568 33896 ft 452 kts 272°
2026-05-08 09:12 23.13505 81.01744 33885 ft 453 kts 272°
2026-05-08 09:13 23.13884 80.94899 33882 ft 453 kts 272°
2026-05-08 09:13 23.14259 80.88073 33880 ft 452 kts 272°
2026-05-08 09:14 23.14629 80.81312 33876 ft 450 kts 272°
2026-05-08 09:14 23.14997 80.74524 33883 ft 449 kts 272°
2026-05-08 09:15 23.15366 80.67745 33903 ft 448 kts 272°
2026-05-08 09:15 23.15734 80.60982 33874 ft 447 kts 272°
2026-05-08 09:16 23.16096 80.54247 33871 ft 446 kts 272°
2026-05-08 09:16 23.16452 80.47582 33875 ft 444 kts 272°
2026-05-08 09:17 23.16806 80.40877 33866 ft 444 kts 272°
2026-05-08 09:17 23.17158 80.34173 33875 ft 444 kts 272°
2026-05-08 09:18 23.17507 80.27460 33881 ft 445 kts 272°
2026-05-08 09:18 23.17854 80.20736 33884 ft 445 kts 272°
2026-05-08 09:19 23.18197 80.14041 33886 ft 446 kts 272°
2026-05-08 09:19 23.18540 80.07305 33886 ft 446 kts 272°
2026-05-08 09:20 23.18855 80.00573 33892 ft 446 kts 272°
2026-05-08 09:20 23.19142 79.93824 33880 ft 447 kts 272°
2026-05-08 09:21 23.19429 79.87083 33876 ft 446 kts 272°
2026-05-08 09:23 23.20423 79.63524 33859 ft 446 kts 272°
2026-05-08 09:23 23.20701 79.56778 33860 ft 446 kts 272°
2026-05-08 09:24 23.20872 79.50077 33864 ft 446 kts 270°
2026-05-08 09:24 23.20975 79.43338 33851 ft 446 kts 270°
2026-05-08 09:25 23.21082 79.36609 33859 ft 446 kts 271°
2026-05-08 09:25 23.21201 79.29854 33869 ft 446 kts 271°
2026-05-08 09:26 23.21320 79.23091 33858 ft 446 kts 271°
2026-05-08 09:26 23.21437 79.16343 33863 ft 446 kts 271°
2026-05-08 09:27 23.21550 79.09632 33857 ft 446 kts 271°
2026-05-08 09:27 23.21659 79.02868 33846 ft 447 kts 271°
2026-05-08 09:28 23.21767 78.96111 33862 ft 447 kts 271°
2026-05-08 09:28 23.21872 78.89323 33859 ft 448 kts 271°
2026-05-08 09:29 23.21974 78.82547 33863 ft 448 kts 271°
2026-05-08 09:29 23.22073 78.75809 33862 ft 449 kts 271°
2026-05-08 09:30 23.22258 78.69028 33863 ft 449 kts 272°
2026-05-08 09:30 23.22613 78.62254 33863 ft 449 kts 274°
2026-05-08 09:31 23.22974 78.55475 33866 ft 449 kts 273°
2026-05-08 09:31 23.23307 78.48704 33866 ft 449 kts 273°
2026-05-08 09:32 23.23626 78.41930 33864 ft 448 kts 273°
2026-05-08 09:32 23.23939 78.35158 33868 ft 448 kts 273°
2026-05-08 09:33 23.24249 78.28391 33866 ft 448 kts 273°
2026-05-08 09:33 23.24556 78.21652 33865 ft 448 kts 273°
2026-05-08 09:34 23.24862 78.14868 33864 ft 448 kts 273°
2026-05-08 09:34 23.25166 78.08079 33861 ft 448 kts 273°
2026-05-08 09:35 23.25466 78.01303 33870 ft 448 kts 273°
2026-05-08 09:35 23.25763 77.94523 33849 ft 449 kts 273°
2026-05-08 09:36 23.26056 77.87786 33863 ft 449 kts 273°
2026-05-08 09:36 23.26348 77.80986 33854 ft 449 kts 273°
2026-05-08 09:37 23.26637 77.74190 33890 ft 449 kts 273°
2026-05-08 09:37 23.26923 77.67398 33865 ft 450 kts 273°
2026-05-08 09:38 23.27207 77.60604 33859 ft 449 kts 273°
2026-05-08 09:38 23.27487 77.53816 33855 ft 449 kts 274°
2026-05-08 09:39 23.27762 77.47086 33855 ft 448 kts 273°
2026-05-08 09:39 23.28036 77.40304 33856 ft 448 kts 273°
2026-05-08 09:40 23.28261 77.33517 33864 ft 449 kts 271°
2026-05-08 09:40 23.27848 77.26727 33861 ft 450 kts 267°
2026-05-08 09:41 23.27342 77.19934 33852 ft 450 kts 267°
2026-05-08 09:41 23.26853 77.13173 33863 ft 451 kts 268°
2026-05-08 09:42 23.26366 77.06360 33862 ft 451 kts 268°
2026-05-08 09:42 23.25879 76.99551 33861 ft 452 kts 268°
2026-05-08 09:43 23.25388 76.92735 33858 ft 452 kts 268°
2026-05-08 09:43 23.24898 76.85969 33848 ft 451 kts 268°
2026-05-08 09:44 23.24400 76.79157 33861 ft 451 kts 268°
2026-05-08 09:44 23.23901 76.72350 33861 ft 452 kts 268°
2026-05-08 09:45 23.23397 76.65533 33858 ft 452 kts 268°
2026-05-08 09:45 23.22891 76.58720 33858 ft 452 kts 268°
2026-05-08 09:46 23.22385 76.51950 33857 ft 452 kts 268°
2026-05-08 09:46 23.21874 76.45141 33852 ft 452 kts 268°
2026-05-08 09:47 23.21359 76.38323 33857 ft 452 kts 268°
2026-05-08 09:47 23.20840 76.31496 33862 ft 453 kts 268°
2026-05-08 09:48 23.20318 76.24674 33857 ft 453 kts 268°
2026-05-08 09:48 23.19794 76.17854 33859 ft 453 kts 268°
2026-05-08 09:49 23.19266 76.11030 33844 ft 453 kts 268°
2026-05-08 09:49 23.18739 76.04244 33856 ft 453 kts 268°
2026-05-08 09:50 23.18332 75.97400 33857 ft 452 kts 271°
2026-05-08 09:50 23.18259 75.90573 33859 ft 452 kts 272°
2026-05-08 09:51 23.18201 75.83719 33857 ft 453 kts 272°
2026-05-08 09:51 23.18127 75.76911 33850 ft 453 kts 272°
2026-05-08 09:52 23.18042 75.70037 33858 ft 454 kts 272°
2026-05-08 09:52 23.17951 75.63170 33861 ft 454 kts 272°
2026-05-08 09:53 23.17857 75.56339 33857 ft 454 kts 272°
2026-05-08 09:53 23.17761 75.49468 33862 ft 454 kts 272°
2026-05-08 09:54 23.17662 75.42602 33861 ft 454 kts 272°
2026-05-08 09:54 23.17559 75.35730 33859 ft 454 kts 272°
2026-05-08 09:55 23.17454 75.28867 33857 ft 454 kts 272°
2026-05-08 09:55 23.17346 75.22002 33859 ft 454 kts 272°
2026-05-08 09:56 23.17236 75.15176 33851 ft 454 kts 272°
2026-05-08 09:56 23.17121 75.08295 33851 ft 454 kts 272°
2026-05-08 09:57 23.16964 74.99143 33845 ft 455 kts 272°
2026-05-08 09:57 23.16824 74.91137 33849 ft 456 kts 272°
2026-05-08 09:58 23.16720 74.85366 33849 ft 456 kts 272°
2026-05-08 09:58 23.16592 74.78474 33852 ft 456 kts 272°
2026-05-08 09:59 23.16462 74.71611 33843 ft 456 kts 272°
2026-05-08 09:59 23.16328 74.64710 33845 ft 456 kts 272°
2026-05-08 10:00 23.16192 74.57818 33833 ft 456 kts 272°
2026-05-08 10:00 23.16052 74.50922 33833 ft 456 kts 272°
2026-05-08 10:01 23.15910 74.44023 33826 ft 456 kts 272°
2026-05-08 10:01 23.15765 74.37131 33826 ft 456 kts 272°
2026-05-08 10:02 23.15574 74.30273 33813 ft 457 kts 271°
2026-05-08 10:02 23.15241 74.23364 33822 ft 458 kts 271°
2026-05-08 10:03 23.14889 74.16444 33812 ft 459 kts 271°
2026-05-08 10:03 23.14549 74.09514 33811 ft 459 kts 271°
2026-05-08 10:04 23.14216 74.02580 33805 ft 459 kts 271°
2026-05-08 10:04 23.13882 73.95637 33797 ft 460 kts 271°
2026-05-08 10:05 23.13547 73.88735 33797 ft 460 kts 271°
2026-05-08 10:05 23.13206 73.81795 33803 ft 460 kts 271°
2026-05-08 10:06 23.12863 73.74850 33790 ft 460 kts 271°
2026-05-08 10:06 23.12516 73.67906 33792 ft 460 kts 271°
2026-05-08 10:07 23.12165 73.60951 33773 ft 461 kts 271°
2026-05-08 10:07 23.11814 73.54036 33773 ft 461 kts 271°
2026-05-08 10:08 23.11456 73.47065 33772 ft 461 kts 271°
2026-05-08 10:08 23.11096 73.40102 33780 ft 461 kts 271°
2026-05-08 10:09 23.10733 73.33140 33773 ft 461 kts 271°
2026-05-08 10:09 23.10369 73.26221 33762 ft 462 kts 271°
2026-05-08 10:10 23.10000 73.19253 33765 ft 462 kts 271°
2026-05-08 10:10 23.09627 73.12275 33775 ft 462 kts 271°
2026-05-08 10:11 23.09251 73.05301 33764 ft 463 kts 271°
2026-05-08 10:11 23.08871 72.98319 33775 ft 463 kts 271°
2026-05-08 10:12 23.08489 72.91341 33748 ft 463 kts 271°
2026-05-08 10:12 23.08104 72.84364 33757 ft 463 kts 271°
2026-05-08 10:13 23.07717 72.77409 33754 ft 463 kts 271°
2026-05-08 10:13 23.07325 72.70414 33746 ft 463 kts 271°
2026-05-08 10:14 23.06922 72.63432 33747 ft 464 kts 270°
2026-05-08 10:14 23.06050 72.56453 33743 ft 467 kts 266°
2026-05-08 10:15 23.05047 72.49519 33748 ft 468 kts 266°